Location: Lesignano de� Bagni
(44.6500°N, 10.3000°E)
Time: 01:23:10
(UTC+00:00)

Cosmos 2341 Rocket - Pass Details

Date: 03 March 2021
Orbit: 968 x 1004 km, 82.9° (Epoch: 20 April)

Event Time Altitude Azimuth Distance (km) Brightness Sun altitude
Rises 18:28:16 0° 177° (S) 3,699 6.9 -14.8°
Reaches altitude 10° 18:30:48 10° 175° (S) 2,749 6.2 -15.3°
Maximum altitude 18:37:02 68° 94° (E) 1,062 3.9 -16.4°
Drops below altitude 10° 18:43:16 10° 13° (NNE) 2,742 6.3 -17.5°
Sets 18:45:48 0° 11° (N) 3,689 7.0 -17.9°
